Location: A O Calhoun Middle School
(33.2198°N, 97.1397°W)
Time: 14:59:22
(UTC+00:00)

Cosmos 1538 Rocket - Visible Passes

Search period start: 03 July 2022 00:00
Search period end: 13 July 2022 00:00
Orbit: 752 x 791 km, 74.0° (Epoch: 03 July)

Date Brightness Start Highest point End Pass type
(mag) Time Alt. Az. Time Alt. Az. Time Alt. Az.
03 Jul 6.5 10:02:51 10° SE 10:06:24 19° E 10:09:56 10° NE visible
05 Jul 4.4 10:31:03 10° S 10:36:14 64° ESE 10:41:23 10° NNE visible
06 Jul 5.4 09:55:40 10° SSE 10:00:23 35° E 10:05:05 10° NE visible
07 Jul 6.2 09:20:56 10° SE 09:24:38 20° E 09:28:20 10° NE visible
08 Jul 6.7 08:48:01 10° ESE 08:48:58 10° E 08:49:54 10° E visible
08 Jul 4.0 10:25:33 12° SSW 10:30:25 67° WNW 10:35:36 10° N visible
09 Jul 4.2 09:50:47 19° S 09:54:29 69° ESE 09:59:39 10° NNE visible
10 Jul 5.1 09:15:56 22° SSE 09:18:38 38° E 09:23:24 10° NE visible
10 Jul 5.5 10:56:58 10° WSW 11:00:50 21° WNW 11:04:42 10° NNW visible
11 Jul 5.9 08:41:02 18° SE 08:42:52 21° E 08:46:43 10° NE visible
11 Jul 4.8 10:21:25 18° SW 10:24:42 35° WNW 10:29:27 10° N visible
12 Jul 6.5 08:06:07 11° ESE 08:07:11 11° E 08:08:47 10° ENE visible
12 Jul 4.0 09:46:29 34° SW 09:48:41 63° WNW 09:53:49 10° N visible
